Theta_e
315 317 317 316 316 316 316 315 313 312 313 313 314 317 321 319 317 317 324 326 324 326 326 327 327 327 325 327 329 332 339 341 341 341 341 339 341 340 339 340 340 340 340 341 343
315 316 318 317 316 316 316 316 314 312 314 313 314 320 321 318 319 325 325 324 325 324 325 327 327 326 327 330 331 332 339 338 339 340 339 339 340 340 341 341 341 341 342 341 341
316 316 318 318 316 316 316 316 314 313 314 314 316 322 321 319 330 327 324 323 324 324 324 324 325 327 332 333 335 338 340 339 340 339 340 341 340 340 341 343 342 342 342 341 338
316 317 319 319 317 316 316 316 315 313 314 314 317 322 323 324 332 328 324 324 325 323 322 326 328 335 338 338 337 338 339 339 340 340 340 340 339 340 342 341 342 342 341 337 331
317 317 319 319 317 316 316 316 316 315 315 314 317 323 323 328 330 326 324 325 324 323 323 330 335 336 338 338 338 340 341 340 340 340 339 340 342 343 342 342 343 343 339 334 329
318 317 319 319 318 316 316 316 317 318 318 315 317 323 323 329 327 324 324 324 323 323 327 330 335 336 337 338 338 340 340 340 340 339 339 342 342 342 341 342 343 342 339 333 330
318 318 319 319 318 316 316 316 317 317 320 315 316 322 325 326 326 322 323 323 323 324 328 329 335 335 338 340 339 340 342 341 339 338 339 340 342 344 341 342 342 342 340 335 331
318 318 318 319 318 316 316 317 317 317 319 316 316 320 328 323 326 325 325 324 323 325 326 331 330 337 338 339 341 343 343 347 341 338 339 341 348 343 342 342 342 342 341 338 333
317 318 318 318 317 316 316 318 318 319 319 316 318 326 327 322 323 325 327 327 327 326 326 330 335 338 340 340 342 344 342 337 343 340 342 341 344 343 340 342 341 341 341 340 338
317 317 318 318 317 316 317 320 319 319 318 317 321 325 324 326 325 324 327 326 327 327 327 330 335 338 340 339 337 337 333 336 339 342 341 343 343 343 340 340 341 340 341 339 339
316 317 318 317 317 316 318 322 323 324 323 324 322 326 326 326 324 325 326 325 327 329 332 332 333 336 334 333 333 333 334 336 337 342 342 342 342 343 341 340 339 341 340 338 338
316 316 317 317 316 316 321 320 318 319 323 322 322 323 324 325 326 326 325 327 329 331 331 332 332 333 333 332 333 334 336 337 339 340 341 343 342 342 341 340 339 340 339 338 338
315 316 317 317 316 319 319 319 319 319 325 322 322 324 324 324 328 327 326 328 330 331 331 331 333 332 332 334 334 335 334 335 335 338 341 340 343 343 341 339 340 339 340 338 338
314 315 316 317 319 319 321 318 319 319 328 325 324 324 324 325 327 328 327 329 330 331 330 331 332 332 333 335 334 340 335 335 337 339 340 337 335 346 344 343 341 340 338 338 337
314 315 316 316 316 319 319 318 319 322 332 326 325 325 325 326 328 327 327 329 331 330 331 331 332 333 334 335 334 335 335 337 337 339 340 343 334 345 343 343 342 340 338 337 337
314 315 316 319 319 321 318 319 322 331 332 326 326 325 325 325 327 327 327 329 330 331 331 332 331 333 336 336 335 336 338 341 341 343 344 340 334 340 342 338 337 339 337 336 336
314 315 316 316 320 319 319 322 331 333 328 326 325 326 326 326 328 329 330 332 332 332 332 331 332 335 335 335 336 336 340 344 342 346 340 338 334 336 337 336 335 336 337 336 336
314 315 317 316 317 319 321 327 333 332 332 330 327 325 326 327 327 329 331 332 332 332 331 333 335 336 335 335 335 337 337 340 340 337 336 342 336 336 335 334 336 335 336 337 336
314 319 321 322 317 317 324 328 334 333 330 329 327 325 326 327 328 329 331 332 333 332 333 334 335 335 334 333 333 338 338 336 338 339 338 339 336 338 337 337 336 337 336 337 337
316 321 322 320 315 320 327 323 331 327 327 329 330 327 328 328 328 329 331 332 333 331 331 335 335 335 334 333 333 335 335 335 337 337 337 335 337 337 335 336 338 338 337 336 338
316 322 325 317 318 322 326 326 328 323 324 329 331 329 329 329 329 329 330 331 332 332 332 334 335 335 335 335 334 336 337 339 339 337 337 340 335 335 336 336 337 337 337 337 338
321 322 324 318 323 323 326 324 319 324 323 326 328 332 332 329 330 330 331 331 330 330 332 332 335 336 335 335 336 333 334 336 336 336 334 334 335 335 336 335 336 335 335 335 336
321 322 323 320 326 325 325 323 322 324 324 327 329 332 332 332 330 330 330 332 332 332 334 335 335 337 336 335 336 337 336 336 336 337 338 337 339 335 338 338 337 334 333 335 335
321 323 324 321 324 329 326 326 325 322 324 327 332 331 332 333 331 332 329 332 334 334 334 337 336 337 337 334 337 338 336 336 335 337 336 334 335 336 338 341 336 335 334 334 335
320 322 328 325 324 324 327 327 325 325 324 329 333 332 332 334 333 332 332 333 333 335 333 339 339 334 335 334 334 334 335 332 333 334 335 335 335 335 336 337 335 336 336 335 334
322 324 325 328 327 325 323 327 326 325 327 329 334 332 332 335 336 337 334 333 333 337 336 341 340 336 334 334 334 332 332 332 332 333 333 334 335 338 336 335 335 336 337 337 336
321 324 329 327 326 327 328 327 327 327 326 328 331 333 333 335 335 337 337 338 338 339 340 341 337 336 334 335 337 332 332 333 331 331 333 336 336 336 337 337 338 338 337 336 335
Wind_Speed
13 14 17 19 21 22 21 20 18 13 9 7 6 4 2 2 6 9 10 10 8 9 9 5 6 6 7 10 10 12 5 11 15 13 16 9 15 13 14 17 16 17 20 15 9
11 13 18 21 21 22 22 21 19 14 9 6 5 3 3 7 12 9 11 10 9 8 4 6 5 5 13 2 3 14 11 17 14 13 10 10 15 9 15 15 16 17 14 11 9
11 13 17 20 21 22 22 23 20 15 9 6 3 4 10 13 7 9 14 12 9 7 4 9 8 8 2 3 7 16 15 12 13 10 13 10 8 14 9 10 10 14 12 11 9
11 13 15 18 21 22 23 23 21 15 7 4 2 8 11 10 5 9 16 12 7 6 7 4 8 14 9 10 3 13 12 11 11 6 6 9 9 11 8 11 11 11 11 11 9
11 13 15 17 21 23 23 23 21 12 6 3 3 8 7 8 4 14 15 9 6 4 5 5 11 5 11 10 13 12 10 10 8 11 9 8 12 14 13 11 11 11 10 10 9
10 12 14 17 20 23 23 21 20 10 7 2 5 9 8 11 6 12 11 10 5 4 4 6 4 10 7 4 9 10 12 12 13 11 11 12 17 11 10 11 11 11 10 9 8
10 12 14 17 20 23 22 20 18 11 4 2 6 9 7 3 8 9 11 7 6 4 5 3 4 7 3 9 11 14 9 7 11 10 10 14 11 10 12 10 11 11 9 8 7
9 11 13 16 20 22 21 21 13 8 3 2 7 9 1 5 9 9 9 7 5 3 3 1 5 1 2 9 5 11 15 9 10 9 7 10 11 13 11 10 10 10 9 8 6
9 10 13 16 19 21 19 19 14 2 5 3 6 8 5 9 7 9 11 9 6 3 4 5 7 1 9 21 1 19 6 7 11 8 2 10 13 18 14 13 12 12 11 10 7
9 10 12 15 19 19 17 15 7 7 5 5 6 6 7 13 10 9 11 9 7 6 6 11 11 7 19 14 1 5 12 8 7 10 5 6 9 16 17 14 12 11 11 10 9
9 9 12 15 17 16 14 15 7 4 7 5 12 3 13 10 8 11 11 10 8 10 16 14 7 16 7 14 11 7 7 5 6 5 6 6 3 13 18 15 11 11 10 11 8
9 9 11 14 15 12 11 9 8 7 8 5 8 9 6 8 12 15 14 12 12 14 10 7 13 10 8 9 5 4 5 12 3 3 6 4 9 12 19 18 17 15 12 11 9
8 9 10 12 12 10 5 6 9 8 8 7 9 8 9 12 18 21 19 20 13 15 8 13 6 5 7 7 7 6 10 9 8 2 10 10 14 12 13 15 16 16 14 12 10
7 9 9 9 7 10 3 10 10 5 6 9 12 8 8 12 15 22 22 19 15 18 14 9 7 6 8 8 10 18 7 5 3 8 0 3 6 13 12 12 13 15 14 14 12
7 8 8 10 10 7 7 10 8 4 4 12 13 8 8 14 13 15 21 18 16 15 3 11 2 7 11 11 5 8 6 7 7 12 8 11 7 10 11 10 13 15 16 13 12
7 8 7 11 10 9 11 10 8 7 3 9 9 11 14 15 10 21 21 16 19 16 13 9 1 7 7 1 4 2 7 8 12 17 3 4 5 7 6 4 5 16 16 12 12
7 8 7 8 6 12 11 6 7 7 7 8 11 9 14 9 14 18 19 18 14 12 12 14 14 6 9 7 4 8 15 4 3 4 5 5 2 8 9 3 6 5 17 17 15
7 8 8 9 9 10 6 9 7 6 4 4 3 6 11 16 13 15 18 17 19 19 14 12 5 4 9 11 7 7 8 8 13 11 10 25 1 6 8 5 5 6 8 16 18
7 5 6 7 8 5 9 9 5 5 4 3 8 9 12 11 6 16 19 19 18 17 15 9 5 13 8 3 8 3 7 9 9 14 5 2 8 14 5 3 2 6 10 12 12
5 7 9 10 5 3 8 6 1 2 4 5 8 6 10 12 10 13 17 17 15 18 21 9 5 11 13 7 10 9 10 10 7 9 10 7 9 5 6 8 4 4 8 11 9
4 7 6 4 3 8 8 4 2 3 2 4 4 2 7 9 11 12 11 11 17 11 12 12 5 3 7 10 14 7 11 7 17 5 10 12 9 8 5 6 3 2 7 10 12
6 9 3 5 10 5 6 2 2 2 2 2 4 4 5 4 6 5 4 6 7 14 12 13 5 12 14 7 13 10 14 8 7 12 14 12 11 6 2 4 5 2 5 8 10
12 8 3 6 6 7 3 4 3 3 1 2 2 2 2 3 5 7 3 8 3 8 5 4 6 10 17 6 4 10 22 19 8 4 15 10 7 5 19 4 4 3 3 6 8
6 5 7 9 7 9 3 4 5 5 7 5 5 4 4 4 6 5 6 5 3 5 2 2 9 10 14 9 4 7 23 22 10 7 14 16 15 6 14 17 4 2 2 5 9
9 7 2 6 10 9 2 1 6 6 8 5 6 7 2 4 7 9 7 11 7 4 5 4 9 15 14 15 9 8 17 13 10 11 13 18 20 15 11 4 4 4 3 5 6
5 5 8 3 2 8 6 7 7 6 5 8 9 3 3 6 7 8 5 7 11 9 7 4 9 9 13 13 10 13 12 15 13 9 12 16 15 15 6 16 5 1 4 7 8
9 5 7 9 10 8 10 9 6 2 8 10 5 5 8 5 4 7 4 4 5 4 8 6 9 5 14 9 18 11 6 11 11 11 12 9 13 11 10 3 6 7 9 9 10
Wind_Direction
18 16 10 12 7 3 359 359 360 357 353 353 354 1 333 167 156 156 178 218 201 200 210 228 248 268 291 277 298 281 27 73 52 156 85 96 85 65 91 86 74 73 77 93 94
15 12 11 6 4 358 355 354 353 350 350 348 4 36 133 147 150 182 219 224 193 199 175 216 246 270 257 315 312 287 51 57 47 52 77 103 102 122 108 102 98 92 89 93 89
1 8 9 0 357 354 351 348 347 343 343 343 30 107 144 146 173 182 225 189 205 198 224 260 279 249 181 359 6 19 59 76 63 47 79 74 124 116 95 105 133 103 108 97 86
349 2 4 356 350 351 349 346 343 336 336 331 96 146 164 172 190 194 193 189 196 223 265 256 223 234 57 72 58 81 69 76 78 73 71 66 129 85 98 99 97 112 114 106 91
341 351 354 351 346 346 346 346 341 333 332 312 154 169 178 219 102 181 189 184 189 218 239 246 254 35 89 95 110 96 96 106 100 84 76 119 99 108 111 119 121 122 124 111 105
328 340 345 346 343 343 343 346 344 340 333 283 178 185 207 242 142 172 176 178 193 207 255 229 354 74 69 47 31 125 135 133 125 118 114 116 121 129 136 134 136 144 141 132 120
315 331 337 341 340 340 341 344 340 331 334 264 189 190 239 73 151 164 174 183 215 232 285 269 78 313 108 113 135 132 138 128 141 119 131 137 171 118 151 166 156 161 158 143 134
306 323 332 338 338 337 339 343 340 331 358 254 189 184 187 155 168 166 186 202 215 250 305 275 220 125 330 95 149 152 299 157 135 154 150 231 140 147 167 178 173 175 165 168 159
301 318 329 335 337 336 341 350 336 338 311 167 163 186 180 187 177 184 189 192 201 225 256 197 223 193 157 80 14 277 190 96 135 184 130 258 134 164 182 201 180 194 172 184 190
295 315 327 334 335 339 345 349 23 16 96 109 193 219 193 192 182 176 188 189 197 211 203 226 219 39 295 149 250 309 358 78 83 134 219 240 113 158 189 199 195 207 178 198 205
290 311 324 334 337 343 358 336 317 195 237 330 175 283 138 164 187 186 190 189 213 220 236 204 239 249 314 1 353 341 329 23 73 94 262 255 266 169 192 199 211 209 189 212 211
286 307 322 331 336 349 10 23 12 328 293 226 211 236 214 201 190 192 188 202 207 233 239 246 255 55 355 321 297 289 312 50 139 138 245 149 250 179 191 200 206 207 218 206 201
282 303 321 330 339 1 339 356 341 318 252 162 186 203 196 197 209 188 190 210 212 237 239 278 22 9 313 253 259 37 7 4 355 215 234 278 220 192 192 200 210 216 204 225 197
279 299 318 329 335 324 295 334 333 315 256 141 185 195 193 203 220 198 202 209 235 247 241 265 55 325 257 264 323 82 341 308 281 276 203 276 325 176 191 205 210 219 219 216 211
275 294 317 325 315 332 303 326 318 305 193 159 146 147 182 203 181 202 199 220 256 230 301 238 250 243 261 33 332 15 319 287 283 266 277 178 299 145 172 192 211 218 221 219 218
270 287 308 326 320 292 315 309 311 236 133 155 158 187 190 211 206 181 194 217 234 266 207 271 44 297 32 153 300 21 263 3 298 328 129 315 20 75 123 7 251 189 202 192 218
265 278 289 296 279 307 314 298 238 266 144 155 186 185 196 185 192 169 194 200 220 233 222 222 219 161 200 178 191 263 296 251 222 247 159 82 211 32 30 39 310 215 186 192 206
265 274 281 284 280 307 307 255 265 49 83 88 247 204 202 176 202 200 198 205 217 226 247 253 150 215 196 259 330 220 330 356 315 337 340 17 357 88 56 32 320 273 215 196 202
274 288 277 269 281 290 273 244 24 41 7 290 169 205 204 183 240 198 206 217 213 227 251 286 198 180 172 258 267 181 284 355 306 304 271 168 346 109 145 133 300 248 240 203 205
257 267 241 267 272 263 253 288 65 44 321 226 253 258 183 188 213 198 200 218 225 218 240 305 242 213 156 222 240 268 332 291 212 304 339 303 35 317 43 46 89 245 229 230 203
237 239 205 232 251 238 249 94 140 81 350 302 351 220 280 175 224 186 213 211 223 203 250 256 240 149 298 214 257 170 273 43 292 299 316 338 333 80 15 62 38 240 203 222 218
239 231 167 195 236 238 267 86 1 304 201 240 271 306 312 251 233 257 237 197 204 240 222 238 274 262 249 16 297 292 282 266 327 327 330 298 298 178 264 122 126 263 211 225 222
238 234 209 193 246 209 114 222 256 262 270 285 253 308 347 280 236 257 213 77 112 237 259 189 238 255 255 261 319 2 312 319 256 315 270 286 321 262 15 269 158 169 244 216 231
240 208 178 214 271 307 173 212 210 218 264 261 286 239 235 233 216 235 235 134 174 229 32 351 260 267 284 290 142 209 245 262 315 283 301 303 329 304 167 233 140 139 222 239 199
224 229 21 187 202 215 236 97 219 206 227 231 218 248 273 259 202 213 239 144 181 172 200 236 262 260 259 272 272 246 246 300 289 294 284 304 310 307 323 82 90 118 223 268 253
249 225 203 150 316 204 157 214 237 206 233 203 255 127 232 264 356 5 340 211 198 172 218 207 271 280 281 257 264 273 284 284 289 297 309 311 311 27 93 264 68 219 286 293 289
225 248 246 146 201 215 199 230 218 260 238 272 302 287 236 53 326 338 324 326 339 276 209 218 272 255 268 83 235 284 320 334 340 319 318 301 335 333 328 7 355 22 339 341 319